When you browse on this site, cookies collect data to enhance your experience and personalize the content and advertising you see.
Visit our Privacy Policy to learn more. By continuing to use the site, you agree to this use of cookies and data.
  • In Hungary
  • List of Countries
  • For 7 days
  • Water Temperature
  • Satellite Maps
  • Weather Map
  • News
  • Weather Widgets
  • user-avatar
    Login

    Hourly Weather Truto

    Today, 20 November, Tuesday

    Time Temperature Precipitation Wind Pressure Humidity
    00:00 0°C° 0 mm 12 mps 756 mmHg 84%
    01:00 0°C° 0 mm 12 mps 756 mmHg 83%
    02:00 0°C° 0 mm 12 mps 756 mmHg 82%
    03:00 -1°C° 0 mm 12 mps 755 mmHg 81%
    04:00 -1°C° 0.1 mm 11 mps 755 mmHg 81%
    05:00 -1°C° 0.1 mm 11 mps 755 mmHg 81%
    06:00 -1°C° 0.1 mm 11 mps 755 mmHg 81%
    07:00 -1°C° 0.1 mm 11 mps 754 mmHg 80%
    08:00 -1°C° 0.1 mm 11 mps 754 mmHg 79%
    09:00 +1°C° 0.1 mm 11 mps 754 mmHg 78%
    10:00 +2°C° 0 mm 11 mps 753 mmHg 75%
    11:00 +3°C° 0 mm 10 mps 753 mmHg 72%
    12:00 +3°C° 0 mm 10 mps 753 mmHg 69%
    13:00 +3°C° 0.1 mm 10 mps 753 mmHg 69%
    14:00 +3°C° 0.1 mm 9 mps 752 mmHg 69%
    15:00 +3°C° 0.1 mm 9 mps 752 mmHg 69%
    16:00 +2°C° 0.1 mm 9 mps 752 mmHg 71%
    17:00 +2°C° 0.1 mm 8 mps 751 mmHg 74%
    18:00 +1°C° 0.1 mm 8 mps 751 mmHg 77%
    19:00 +1°C° 0.1 mm 8 mps 751 mmHg 80%
    20:00 0°C° 0.1 mm 7 mps 751 mmHg 84%
    21:00 -1°C° 0.1 mm 7 mps 751 mmHg 87%
    22:00 -1°C° 0.1 mm 7 mps 751 mmHg 89%
    23:00 -1°C° 0.1 mm 6 mps 751 mmHg 91%

    Tomorrow, 21 November, Wednesday

    Time Temperature Precipitation Wind Pressure Humidity
    00:00 -2°C° 0.1 mm 6 mps 751 mmHg 92%
    01:00 -2°C° 0.1 mm 6 mps 751 mmHg 93%
    02:00 -2°C° 0.1 mm 6 mps 751 mmHg 94%
    03:00 -1°C° 0.1 mm 5 mps 751 mmHg 95%
    04:00 -1°C° 0.1 mm 5 mps 751 mmHg 96%
    05:00 -1°C° 0.1 mm 5 mps 751 mmHg 96%
    06:00 -1°C° 0.1 mm 5 mps 751 mmHg 96%
    07:00 0°C° 0.2 mm 4 mps 751 mmHg 94%
    08:00 +1°C° 0.2 mm 4 mps 751 mmHg 92%
    09:00 +3°C° 0.2 mm 3 mps 752 mmHg 90%
    10:00 +4°C° 0.1 mm 3 mps 752 mmHg 83%
    11:00 +6°C° 0.1 mm 4 mps 753 mmHg 75%
    12:00 +8°C° 0.1 mm 4 mps 753 mmHg 68%
    13:00 +7°C° 0.1 mm 4 mps 753 mmHg 70%
    14:00 +7°C° 0.1 mm 4 mps 754 mmHg 72%
    15:00 +7°C° 0.1 mm 4 mps 754 mmHg 75%
    16:00 +6°C° 0.1 mm 5 mps 755 mmHg 79%
    17:00 +5°C° 0.1 mm 5 mps 755 mmHg 83%
    18:00 +5°C° 0.1 mm 5 mps 756 mmHg 87%
    19:00 +4°C° 0 mm 6 mps 756 mmHg 86%
    20:00 +4°C° 0 mm 7 mps 757 mmHg 85%
    21:00 +4°C° 0 mm 8 mps 757 mmHg 84%
    22:00 +2°C° 0 mm 8 mps 757 mmHg 84%
    23:00 +2°C° 0 mm 8 mps 757 mmHg 84%

    Day after tomorrow, 22 November, Thursday

    Time Temperature Precipitation Wind Pressure Humidity
    00:00 +2°C° 0 mm 9 mps 757 mmHg 84%
    01:00 +2°C° 0 mm 9 mps 758 mmHg 84%
    02:00 +1°C° 0 mm 9 mps 758 mmHg 85%
    03:00 +1°C° 0 mm 9 mps 758 mmHg 85%
    04:00 +1°C° 0 mm 9 mps 758 mmHg 85%
    05:00 +1°C° 0 mm 9 mps 757 mmHg 85%
    06:00 +1°C° 0 mm 10 mps 757 mmHg 86%
    07:00 +1°C° 0 mm 10 mps 757 mmHg 84%
    08:00 +2°C° 0 mm 10 mps 757 mmHg 83%
    09:00 +2°C° 0 mm 10 mps 757 mmHg 81%
    10:00 +3°C° 0 mm 10 mps 757 mmHg 79%
    11:00 +5°C° 0 mm 10 mps 757 mmHg 76%
    12:00 +7°C° 0 mm 9 mps 757 mmHg 74%
    13:00 +6°C° 0 mm 9 mps 757 mmHg 76%
    14:00 +6°C° 0 mm 9 mps 757 mmHg 78%
    15:00 +6°C° 0 mm 9 mps 756 mmHg 80%
    16:00 +6°C° 0 mm 9 mps 756 mmHg 84%
    17:00 +5°C° 0 mm 9 mps 756 mmHg 88%
    18:00 +5°C° 0 mm 9 mps 756 mmHg 93%
    19:00 +5°C° 0 mm 9 mps 756 mmHg 91%
    20:00 +6°C° 0 mm 9 mps 756 mmHg 90%
    21:00 +7°C° 0 mm 9 mps 756 mmHg 89%
    22:00 +7°C° 0.2 mm 9 mps 756 mmHg 89%
    23:00 +7°C° 0.2 mm 8 mps 756 mmHg 89%

    23 November, Friday

    Time Temperature Precipitation Wind Pressure Humidity
    00:00 +7°C° 0.2 mm 8 mps 756 mmHg 89%
    01:00 +8°C° 0.5 mm 7 mps 756 mmHg 90%
    02:00 +6°C° 0.5 mm 7 mps 756 mmHg 91%
    03:00 +7°C° 0.5 mm 6 mps 756 mmHg 92%
    04:00 +6°C° 0.6 mm 7 mps 756 mmHg 91%
    05:00 +6°C° 0.6 mm 7 mps 756 mmHg 91%
    06:00 +6°C° 0.6 mm 7 mps 756 mmHg 90%
    07:00 +6°C° 0.6 mm 7 mps 756 mmHg 89%
    08:00 +8°C° 0.6 mm 7 mps 756 mmHg 88%
    09:00 +8°C° 0.6 mm 7 mps 756 mmHg 87%
    10:00 +9°C° 0.4 mm 7 mps 756 mmHg 84%
    11:00 +10°C° 0.4 mm 6 mps 756 mmHg 81%
    12:00 +12°C° 0.4 mm 5 mps 756 mmHg 77%
    13:00 +10°C° 0.4 mm 5 mps 755 mmHg 79%
    14:00 +11°C° 0.4 mm 4 mps 755 mmHg 81%
    15:00 +11°C° 0.4 mm 3 mps 755 mmHg 83%
    16:00 +10°C° 0.5 mm 3 mps 755 mmHg 86%
    17:00 +9°C° 0.5 mm 3 mps 755 mmHg 90%
    18:00 +8°C° 0.5 mm 3 mps 755 mmHg 93%
    19:00 +8°C° 0.2 mm 2 mps 755 mmHg 93%
    20:00 +8°C° 0.2 mm 2 mps 755 mmHg 92%
    21:00 +8°C° 0.2 mm 2 mps 755 mmHg 92%
    22:00 +8°C° 0.2 mm 2 mps 755 mmHg 93%
    23:00 +8°C° 0.2 mm 2 mps 755 mmHg 94%

    24 November, Saturday

    Time Temperature Precipitation Wind Pressure Humidity
    00:00 +8°C° 0.2 mm 2 mps 755 mmHg 94%
    01:00 +8°C° 0.2 mm 2 mps 755 mmHg 95%
    02:00 +8°C° 0.2 mm 2 mps 755 mmHg 95%
    03:00 +8°C° 0.2 mm 2 mps 755 mmHg 96%
    04:00 +8°C° 0.2 mm 2 mps 755 mmHg 96%
    05:00 +8°C° 0.2 mm 2 mps 755 mmHg 96%
    06:00 +8°C° 0.2 mm 3 mps 755 mmHg 96%
    07:00 +8°C° 0.1 mm 3 mps 755 mmHg 96%
    08:00 +8°C° 0.1 mm 3 mps 755 mmHg 95%
    09:00 +7°C° 0.1 mm 4 mps 756 mmHg 95%
    10:00 +9°C° 0.1 mm 3 mps 756 mmHg 93%
    11:00 +9°C° 0.1 mm 3 mps 756 mmHg 91%
    12:00 +10°C° 0.1 mm 3 mps 756 mmHg 89%
    13:00 +10°C° 0.1 mm 3 mps 756 mmHg 89%
    14:00 +10°C° 0.1 mm 3 mps 756 mmHg 89%
    15:00 +10°C° 0.1 mm 2 mps 756 mmHg 89%
    16:00 +9°C° 0.1 mm 3 mps 756 mmHg 91%
    17:00 +9°C° 0.1 mm 3 mps 756 mmHg 93%
    18:00 +7°C° 0.1 mm 4 mps 756 mmHg 94%
    19:00 +7°C° 0 mm 4 mps 756 mmHg 95%
    20:00 +6°C° 0 mm 4 mps 756 mmHg 96%
    21:00 +6°C° 0 mm 4 mps 756 mmHg 96%
    22:00 +6°C° 0 mm 4 mps 756 mmHg 96%
    23:00 +6°C° 0 mm 4 mps 756 mmHg 96%

    25 November, Sunday

    Time Temperature Precipitation Wind Pressure Humidity
    00:00 +6°C° 0 mm 4 mps 756 mmHg 96%
    01:00 +6°C° 0 mm 4 mps 756 mmHg 96%
    02:00 +6°C° 0 mm 4 mps 755 mmHg 96%
    03:00 +6°C° 0 mm 4 mps 755 mmHg 97%
    04:00 +6°C° 0 mm 4 mps 755 mmHg 96%
    05:00 +5°C° 0 mm 4 mps 755 mmHg 95%
    06:00 +5°C° 0 mm 4 mps 755 mmHg 95%
    07:00 +6°C° 0 mm 5 mps 755 mmHg 94%
    08:00 +6°C° 0 mm 5 mps 755 mmHg 94%
    09:00 +7°C° 0 mm 6 mps 755 mmHg 94%
    10:00 +7°C° 0 mm 6 mps 755 mmHg 91%
    11:00 +8°C° 0 mm 7 mps 755 mmHg 88%
    12:00 +9°C° 0 mm 7 mps 755 mmHg 84%
    13:00 +9°C° 0.1 mm 7 mps 755 mmHg 85%
    14:00 +7°C° 0.1 mm 8 mps 754 mmHg 85%
    15:00 +7°C° 0.1 mm 8 mps 754 mmHg 85%
    16:00 +7°C° 0.1 mm 8 mps 754 mmHg 87%
    17:00 +6°C° 0.1 mm 8 mps 754 mmHg 88%
    18:00 +5°C° 0.1 mm 8 mps 754 mmHg 90%
    19:00 +5°C° 0.1 mm 8 mps 754 mmHg 90%
    20:00 +5°C° 0.1 mm 8 mps 754 mmHg 90%
    21:00 +5°C° 0.1 mm 8 mps 754 mmHg 90%
    22:00 +5°C° 0.1 mm 8 mps 754 mmHg 91%
    23:00 +4°C° 0.1 mm 8 mps 754 mmHg 92%
    Show more